Skip Page Navigation
NASA JPL Caltech
NASA Logo - Jet Propulsion Laboratory + View the NASA Portal
+ Near-Earth Object (NEO) Program
Search JPL
JPL Home Earth Solar System Stars & Galaxies Technology
JPL Solar System Dynamics
BODIES ORBITS EPHEMERIDES TOOLS PHYSICAL DATA DISCOVERY FAQ SITE MAP
JPL Small-Body Database Browser
Search: [ help ]  
8472 Tarroni (1983 TC)
Classification: Main-belt Asteroid          SPK-ID: 2008472
Ephemeris | Orbit Diagram | Orbital Elements | Physical Parameters | Discovery Circumstances ]

[ show orbit diagram ]
Orbital Elements at Epoch 2457000.5 (2014-Dec-09.0) TDB
Reference: JPL 8 (heliocentric ecliptic J2000)
 Element Value Uncertainty (1-sigma)   Units 
e .1963693807236943 6.2698e-08  
a 2.694093561303564 2.6058e-08 AU
q 2.165056077058691 1.7651e-07 AU
i 11.90815426255309 8.3734e-06 deg
node 228.9009354793789 2.8911e-05 deg
peri 125.5756967411278 3.7107e-05 deg
M 26.65763041045295 2.9062e-05 deg
tp 2456880.898540465591
(2014-Aug-11.39854047)
0.00012916 JED
period 1615.16701857732
4.42
2.3434e-05
6.416e-08
d
yr
n .2228871663792993 3.2338e-09 deg/d
Q 3.223131045548437 3.1175e-08 AU
  Orbit Determination Parameters
   # obs. used (total)      847  
   data-arc span      12619 days (34.55 yr)  
   first obs. used      1979-12-18  
   last obs. used      2014-07-06  
   planetary ephem.      DE431  
   SB-pert. ephem.      SB431-BIG16  
   condition code      0  
   fit RMS      .50945  
   data source      ORB  
   producer      Otto Matic  
   solution date      2014-Jul-14 12:19:33  

Additional Information
 Earth MOID = 1.18642 AU 
 T_jup = 3.312 
[ show covariance matrix ]

Ephemeris | Orbit Diagram | Orbital Elements | Physical Parameters | Discovery Circumstances ]

Physical Parameter Table
Parameter Symbol Value Units Sigma Reference Notes
absolute magnitude H 13.2 mag n/a MPO267742  

8472 Tarroni (1983 TC)          Discovered 1983-Oct-12 by Osservatorio San Vittore at Bologna (552)
Reference: 19980313/Numbers.arcLast Updated: 2004-04-19

Alternate Designations
 1983 TC = 1979 YR4 = 1992 UL10 
Ephemeris | Orbit Diagram | Orbital Elements | Physical Parameters | Discovery Circumstances ]
ABOUT SSD CREDITS/AWARDS PRIVACY/COPYRIGHT GLOSSARY LINKS
FirstGov 2014-Sep-02 18:55 UT
(server date/time)  
NASA Home Page
Site Manager:   Donald K. Yeomans
Webmaster  Alan B. Chamberlin